Regional Weather Roundup
Issued by NWS Newport/Morehead, NC

Current Version | Previous Version | Text Only | Print | Product List | Glossary On
Versions: 1 2 3 4 5 6 7 8 9 10 11 12 13 14 15 16 17 18 19 20 21 22 23 24 25 26 27 28 29 30 31 32 33 34 35 36 37 38 39 40 41 42
000 ASUS42 KMHX 211325 RWRMHX WEATHER ROUNDUP FOR EASTERN NORTH CAROLINA NATIONAL WEATHER SERVICE NEWPORT/MOREHEAD CITY NC 900 AM EDT SAT APR 21 2018 NOTE: "FAIR" INDICATES FEW OR NO CLOUDS BELOW 12,000 FEET WITH NO SIGNIFICANT WEATHER AND/OR OBSTRUCTIONS TO VISIBILITY NCZ015>017-031-032-045>047-102-103-211400- NORTH COAST CITY SKY/WX TMP DP RH WIND PRES REMARKS EDENTON FAIR 54 45 71 N3 30.46R ELIZABETH CITY FAIR 50 44 80 N6 30.46R KITTY HAWK FAIR 51 43 75 NE6 30.43S MANTEO FAIR 53 38 58 E10 30.45R $$ NCZ045>047-081-094-103-104-211400- CENTRAL COAST CITY SKY/WX TMP DP RH WIND PRES REMARKS FRISCO FAIR 56 36 47 NE9 30.43R $$ NCZ095-097-098-100-101-211400- SOUTHERN COAST CITY SKY/WX TMP DP RH WIND PRES REMARKS BEAUFORT FAIR 58 38 47 VRB5 30.43R CEDAR ISLAND NOT AVBL JACKSONVILLE FAIR 56 42 59 NE6 30.43R PINEY ISLAND NOT AVBL WILMINGTON FAIR 56 48 74 NE7 30.42R $$ NCZ011>013-027>030-043-044-078>080-089-090>093-098-211400- COASTAL PLAIN CITY SKY/WX TMP DP RH WIND PRES REMARKS AHOSKIE FAIR 50 42 75 CALM 30.46S CLINTON FAIR 53 44 71 E3 30.45S ELIZABETHTOWN FAIR 50 42 73 MISG 30.44S GOLDSBORO FAIR 53 44 73 E5 30.43R GREENVILLE FAIR 54 39 58 CALM 30.45R HAVELOCK SUNNY 59 47 64 VRB3 30.44R KENANSVILLE FAIR 52 45 76 E3 30.45R KINSTON FAIR 54 43 66 CALM 30.45S NEW BERN FAIR 55 43 63 E5 30.45R RICHLANDS FAIR 54 42 64 NE5 30.45R ROCKY MOUNT FAIR 50 44 80 CALM 30.46R WASHINGTON FAIR 55 38 52 CALM 30.45S WHITEVILLE FAIR 53 45 72 NE7 30.42S $$ AMZ130-135-150-152-154-156-158-170-250-252-270-ANZ085-086-088-633-658-670-211400- MARINE OBSERVATIONS STATION/POSITION TIME TEMP WIND PRES WAVE SWELL AIR SEA DIR/SP/G HT/PER HT/PER (UTC) (F) (DEG/KT/KT) (MB) (FT/S) (FT/S) CHESAPEAKE LIGHT NOT AVBL 64 E VA BEACH 1250 47 48 10/ 10/ 12 1031.4 3/ 6 2/ 6 DUCK 1300 49 51 60/ 12/ 14 1030.7 2 E DUCK 1300 51 N/A 2/ 5 OREGON INLET 1300 51 54 20/ 9/ 11 1030.8 13E OREGON INLT 1248 50 N/A 3/ 5 3/ 5 HATTERAS CG 1300 54 60 30/ 9/ 13 1030.1 DIAMOND BUOY 1310 55 68 10/ 16/ 19 1030.2 CAPE LOOKOUT 1300 50/ 14/ 15 1030.4 BEAUFORT LAB 1300 57 62 40/ 7/ 11 1030.4 30 SE NEW RVR IN 1308 59 65 80/ 12/ 16 1029.9 30 SE NEW RVR IN 1300 66 N/A 3/ 8 27 SE WRIGHTSVLE 1308 61 66 80/ 14/ 25 1029.8 5 SE WRIGHTSVLE 1308 59 60 70/ 10/ 16 1029.6 225 S CAPE HAT 1310 63 72 70/ 12/ 16 1026.7 41 SE CHARLESTON 1310 65 67 70/ 16/ 19 1027.5 $$

USA.gov is the U.S. government's official web portal to all federal, state and local government web resources and services.